Tracking 26940 objects as of 28-Jan-2023
HD Live streaming from Space Station
objects crossing your sky now

OPS 6679 (VELA 8)

Track OPS 6679 (VELA 8) now!
OPS 6679 (VELA 8) is classified as:


NORAD ID: 2766
Int'l Code: 1967-040B
Perigee: 57,255.8 km
Apogee: 166,750.4 km
Inclination: 30.4 °
Period: 6,755.3 minutes
Semi major axis: 118374 km
RCS: Unknown
Launch date: April 28, 1967
Source: United States (US)
Launch site: AIR FORCE EASTERN TEST RANGE (AFETR)
Your satellite tracking list
Your tracking list is empty




NASA's NSSDC Master Catalog

Two Line Element Set (TLE):
1  2766U 67040B   23031.47087846 -.00001184  00000-0  00000+0 0  9995
2  2766  30.3726  26.4783 4624941  65.2021   0.9066  0.21316606 43609
Source of the keplerian elements: AFSPC